Regional Weather Roundup
Issued by NWS

Home | Current Version | Previous Version | Graphics & Text | Print | Product List | Glossary On
Versions: 1 2 3 4 5 6 7 8 9 10 11 12 13 14 15 16 17 18 19 20 21 22 23 24 25 26 27 28 29 30 31 32 33 34 35 36 37 38 39 40 41 42 43 44 45 46 47 48 49 50
000
ASUS43 KLSX 200759
RWRMO

WEATHER SUMMARY FOR MISSOURI
NATIONAL WEATHER SERVICE SPRINGFIELD MO
300 AM CDT MON OCT 20 2014

NOTE: "FAIR" INDICATES FEW OR NO CLOUDS BELOW 12,000 FEET WITH NO
       SIGNIFICANT WEATHER AND/OR OBSTRUCTIONS TO VISIBILITY.
       CURRENT SKY AND/OR WEATHER CONDITIONS ARE NOT AVAILABLE FOR
       CHILLICOTHE AND FARMINGTON.

MOZ001>031-035>038-043-044-053-054-200900-
...NORTHERN AND WESTERN MISSOURI...

CITY           SKY/WX    TMP DP  RH WIND       PRES   REMARKS
KANSAS CTY INT CLEAR     52  50  93 SW7       30.00F
KANSAS C DTWN  CLEAR     56  51  84 SW3       30.01R
LEE`S SUMMIT   CLEAR     54  50  86 SW7       30.02R
ST JOSEPH      CLEAR     44  42  93 CALM      30.00S
KIRKSVILLE     CLEAR     56  50  80 W13G20    29.95F

$$
MOZ066>068-077>081-088>096-101>105-200900-
...SOUTHWEST MISSOURI...

CITY           SKY/WX    TMP DP  RH WIND       PRES   REMARKS
SPRINGFIELD    CLOUDY    54  50  86 S7        30.04F
JOPLIN         CLOUDY    59  52  77 SW10      30.05S

$$
MOZ032>034-039>042-045>050-055>058-069>072-200900-
...CENTRAL MISSOURI...

CITY           SKY/WX    TMP DP  RH WIND       PRES   REMARKS
COLUMBIA       CLEAR     50  48  93 S5        30.00F
JEFFERSON CITY PTCLDY    54  48  80 CALM      30.01S
ROLLA          MOCLDY    51  45  79 SW10      30.01F
SEDALIA        CLEAR     55  50  83 SW8       30.02R
OSAGE BEACH    PTCLDY    50  45  81 S3        30.02F

$$
MOZ051-052-059>065-200900-
...EAST CENTRAL MISSOURI...

CITY           SKY/WX    TMP DP  RH WIND       PRES   REMARKS
ST LOUIS INTL  CLOUDY    57  47  69 SW7       30.00S
SPIRIT OF STL  CLOUDY    56  47  71 SW8       29.99F
ST CHARLES     CLOUDY    54  48  80 W5        29.99S

$$
MOZ072>076-082>087-097>100-106>115-200900-
...SOUTH CENTRAL AND SOUTHEAST MISSOURI...

CITY           SKY/WX    TMP DP  RH WIND       PRES   REMARKS
CAPE GIRARDEAU MOCLDY    49  47  93 CALM      30.06S
FARMINGTON     MOCLDY    52  46  82 S5        30.05F
POPLAR BLUFF   PTCLDY    50  46  86 CALM      30.05F
WEST PLAINS    MOCLDY    52  46  80 SW3       30.06F HAZE

$$



USA.gov is the U.S. government's official web portal to all federal, state and local government web resources and services.